Content
SEND FEEDBACK

Daily
Averages
Monthly
Summary
United States of America

NEW CASTLE, DELAWARE


Home > North America > United States > Delaware
Elevation: 79 feet     Latitude: 39 40N     Longitude: 075 36W

WEATHER
 
SELECT A DAY
Number of Records: 202,277;   Date Range: 1/1/95 - 8/30/14
 
SHARE

PRINT THIS DATA

[ ← Previous Day ]
WEATHER ALMANAC - JANUARY 31, 2013
[ Next Day → ]
[ °C ]   °F
Weather ElementAverageHighLow
Temperature49 °F64.9 °F (12:51 am)28.9 °F (10:51 pm)
Dewpoint35.2 °F61 °F (2:51 am)9 °F (9:51 pm)
Humidity61.4 %94 % (2:56 am)34 % (1:51 pm)
Barometer29.46 in29.91 in (11:51 pm)29.13 in (2:08 am)
Wind Speed21.7 mph29.9 mph (12:51 am)
Wind Gust46 mph (7:51 am)
Weather ElementAverage
Visibility8.9 mi
Wind DirectionWSW (253 °)

Weather ElementTotal
Precipitation0.87 in
Heating Degree Days18.1 (Base 65)
Averaged from 33 records on January 31, 2013
WEATHER CONDITIONS BREAKOUT
WIND DIRECTION BREAKOUT
WEATHER BY HOUR - JANUARY 31, 2013
[ °C ]   °F
Local TimeTemperatureDewpointHumidityBarometerVisibilityWind DirectionWind SpeedGust SpeedPrecipitationEventsConditions
12:32 AM64.4 °F59.0 °F83 %29.25 in10.0 miSouth (190°)26.5 mph44.9 mph0.01 inRainLight Rain
12:51 AM64.9 °F59.0 °F81 %29.21 in10.0 miSouth (180°)29.9 mph42.6 mph0.01 inOvercast
12:59 AM64.4 °F59.0 °F83 %29.20 in10.0 miSouth (180°)27.6 mph42.6 mphOvercast
1:51 AM64.9 °F59.0 °F81 %29.16 in10.0 miSouth (180°)24.2 mph36.8 mph0.01 inRainLight Rain
2:08 AM64.4 °F59.0 °F83 %29.13 in8.0 miSouth (180°)26.5 mph42.6 mph0.01 inRainLight Rain
2:46 AM64.4 °F60.8 °F88 %29.17 in1.8 miSW (230°)23.0 mph39.1 mph0.09 inRainHeavy Rain
2:51 AM64.0 °F61.0 °F90 %29.19 in1.5 miWSW (240°)24.2 mph35.7 mph0.20 inRainHeavy Rain
2:56 AM62.6 °F60.8 °F94 %29.20 in2.0 miWSW (240°)28.8 mph40.3 mph0.08 inRainHeavy Rain
3:04 AM60.8 °F57.2 °F88 %29.22 in4.0 miWSW (240°)26.5 mph40.3 mph0.12 inRainHeavy Rain
3:51 AM59.0 °F55.9 °F90 %29.17 in8.0 miSW (220°)10.4 mph19.6 mph0.29 inRainLight Rain
4:51 AM57.9 °F54.0 °F87 %29.15 in10.0 miSSW (210°)11.5 mph28.8 mph0.03 inMostly Cloudy
5:25 AM53.6 °F46.4 °F77 %29.21 in7.0 miWest (270°)19.6 mph43.7 mph0.00 inRainLight Rain
5:47 AM53.6 °F44.6 °F72 %29.25 in10.0 miWNW (290°)21.9 mph38.0 mph0.01 inOvercast
5:51 AM52.0 °F45.0 °F77 %29.26 in10.0 miWNW (290°)21.9 mph32.2 mph0.01 inOvercast
5:59 AM51.8 °F42.8 °F71 %29.27 in10.0 miWest (280°)23.0 mph38.0 mphOvercast
6:51 AM48.9 °F35.1 °F59 %29.34 in10.0 miWNW (290°)19.6 mph29.9 mphOvercast
7:51 AM44.1 °F28.9 °F55 %29.42 in10.0 miWest (280°)26.5 mph46.0 mphMostly Cloudy
8:51 AM44.1 °F24.1 °F45 %29.49 in10.0 miWest (280°)21.9 mph34.5 mphClear
9:51 AM45.0 °F24.1 °F44 %29.52 in10.0 miWest (280°)27.6 mph35.7 mphClear
10:51 AM45.0 °F23.0 °F42 %29.56 in10.0 miWest (280°)23.0 mph32.2 mphScattered Clouds
11:51 AM46.0 °F21.9 °F39 %29.58 in10.0 miWest (270°)26.5 mph33.4 mphPartly Cloudy
12:51 PM46.0 °F21.0 °F37 %29.59 in10.0 miWNW (290°)27.6 mph35.7 mphMostly Cloudy
1:51 PM44.1 °F17.1 °F34 %29.62 in10.0 miWest (280°)28.8 mph41.4 mphScattered Clouds
2:51 PM42.1 °F17.1 °F37 %29.64 in10.0 miWest (280°)20.7 mph29.9 mphClear
3:51 PM41.0 °F17.1 °F38 %29.69 in10.0 miWest (270°)20.7 mph38.0 mphMostly Cloudy
4:51 PM37.9 °F18.0 °F45 %29.73 in10.0 miWest (270°)12.7 mph29.9 mphMostly Cloudy
5:51 PM37.0 °F14.0 °F39 %29.77 in10.0 miWNW (290°)24.2 mph34.5 mphScattered Clouds
6:51 PM36.0 °F16.0 °F44 %29.80 in10.0 miWest (260°)16.1 mphMostly Cloudy
7:51 PM35.1 °F17.1 °F48 %29.84 in10.0 miWest (270°)25.3 mph33.4 mphClear
8:51 PM32.0 °F14.0 °F48 %29.88 in10.0 miWNW (290°)20.7 mph32.2 mphPartly Cloudy
9:51 PM30.9 °F9.0 °F40 %29.89 in10.0 miWest (280°)12.7 mph23.0 mphClear
10:51 PM28.9 °F10.0 °F45 %29.90 in10.0 miWSW (240°)8.1 mphClear
11:51 PM30.0 °F10.0 °F43 %29.91 in10.0 miSW (230°)8.1 mphClear
Hourly data recorded from KILG, located miles away from New Castle, Delaware







STORIES FROM OUR PARTNERS